WZZ401 EPKK-LHBP

Flight info

Callsign WZZ401
Flight time 0h 41m
Altitude 28000
Route BABKO DCT NIDOK DCT EDEMU
Aircraft A21N/M-SDE3FGHIRWY/LB1

Departure

Time 2026-05-07 21:46
Airport Kraków John Paul II International Airport (EPKK)

Arrival

Time 2026-05-07 22:27
Airport Budapest Liszt Ferenc International Airport (LHBP)
Time Latitude Longitude Altitude Speed Heading
2026-05-07 21:24 50.07622 19.79635 799 ft 0 kts 257°
2026-05-07 21:36 50.07622 19.79638 799 ft 2 kts 257°
2026-05-07 21:36 50.07623 19.79662 799 ft 2 kts 282°
2026-05-07 21:36 50.07618 19.79684 799 ft 2 kts 301°
2026-05-07 21:37 50.07608 19.79702 799 ft 2 kts 320°
2026-05-07 21:37 50.07595 19.79715 799 ft 2 kts 340°
2026-05-07 21:37 50.07587 19.79718 799 ft 0 kts 349°
2026-05-07 21:40 50.07592 19.79716 799 ft 1 kts 346°
2026-05-07 21:41 50.07608 19.79709 799 ft 3 kts 345°
2026-05-07 21:41 50.07652 19.79692 799 ft 7 kts 345°
2026-05-07 21:41 50.07678 19.79627 799 ft 9 kts 265°
2026-05-07 21:41 50.07661 19.79495 799 ft 16 kts 257°
2026-05-07 21:42 50.07635 19.79302 799 ft 18 kts 257°
2026-05-07 21:42 50.07607 19.79105 799 ft 19 kts 259°
2026-05-07 21:42 50.07578 19.78898 799 ft 19 kts 258°
2026-05-07 21:42 50.07549 19.78687 799 ft 20 kts 258°
2026-05-07 21:43 50.07519 19.78472 799 ft 20 kts 258°
2026-05-07 21:43 50.07489 19.78254 799 ft 20 kts 258°
2026-05-07 21:43 50.07458 19.78035 799 ft 21 kts 258°
2026-05-07 21:43 50.07426 19.77809 799 ft 21 kts 258°
2026-05-07 21:44 50.07395 19.77581 799 ft 21 kts 259°
2026-05-07 21:44 50.07363 19.77351 799 ft 21 kts 257°
2026-05-07 21:44 50.07332 19.77132 799 ft 17 kts 258°
2026-05-07 21:44 50.07311 19.76971 799 ft 11 kts 270°
2026-05-07 21:45 50.07370 19.76889 799 ft 12 kts 346°
2026-05-07 21:45 50.07460 19.76860 799 ft 14 kts 348°
2026-05-07 21:45 50.07547 19.76899 799 ft 14 kts 63°
2026-05-07 21:45 50.07554 19.76932 799 ft 0 kts 74°
2026-05-07 21:46 50.07596 19.77231 799 ft 55 kts 78°
2026-05-07 21:46 50.07727 19.78149 800 ft 120 kts 78°
2026-05-07 21:46 50.07942 19.79715 857 ft 169 kts 77°
2026-05-07 21:46 50.08195 19.81531 1453 ft 174 kts 77°
2026-05-07 21:47 50.08443 19.83290 2325 ft 165 kts 77°
2026-05-07 21:47 50.08675 19.84990 2986 ft 163 kts 77°
2026-05-07 21:47 50.08915 19.86747 3450 ft 170 kts 76°
2026-05-07 21:47 50.09174 19.88574 3981 ft 174 kts 76°
2026-05-07 21:48 50.09435 19.90474 4350 ft 190 kts 77°
2026-05-07 21:48 50.09713 19.92566 4754 ft 204 kts 78°
2026-05-07 21:48 50.09998 19.94813 5199 ft 218 kts 83°
2026-05-07 21:48 50.09708 19.97160 5662 ft 230 kts 119°
2026-05-07 21:49 50.08615 19.98958 6171 ft 237 kts 149°
2026-05-07 21:49 50.07018 19.99840 6501 ft 255 kts 170°
2026-05-07 21:49 50.05226 20.00343 7100 ft 266 kts 172°
2026-05-07 21:49 50.03400 20.00854 7957 ft 267 kts 171°
2026-05-07 21:50 50.01583 20.01411 8810 ft 267 kts 171°
2026-05-07 21:50 49.99775 20.01966 9613 ft 269 kts 171°
2026-05-07 21:50 49.97924 20.02560 10383 ft 271 kts 172°
2026-05-07 21:50 49.96076 20.02550 11110 ft 267 kts 198°
2026-05-07 21:51 49.94478 20.01246 11911 ft 261 kts 223°
2026-05-07 21:51 49.93386 19.98984 12427 ft 270 kts 246°
2026-05-07 21:51 49.92821 19.96157 12800 ft 285 kts 253°
2026-05-07 21:51 49.92284 19.93080 13129 ft 303 kts 253°
2026-05-07 21:52 49.91708 19.89841 13447 ft 320 kts 253°
2026-05-07 21:52 49.91091 19.86433 13743 ft 336 kts 252°
2026-05-07 21:52 49.90435 19.82862 14031 ft 352 kts 252°
2026-05-07 21:52 49.89711 19.79176 14314 ft 367 kts 251°
2026-05-07 21:53 49.88938 19.75395 14769 ft 375 kts 250°
2026-05-07 21:53 49.87837 19.71703 15356 ft 378 kts 236°
2026-05-07 21:53 49.86103 19.68676 15970 ft 380 kts 220°
2026-05-07 21:53 49.83876 19.66417 16597 ft 382 kts 210°
2026-05-07 21:54 49.81563 19.64422 17201 ft 385 kts 209°
2026-05-07 21:54 49.79229 19.62435 17772 ft 388 kts 209°
2026-05-07 21:54 49.76856 19.60412 18338 ft 391 kts 209°
2026-05-07 21:54 49.74465 19.58370 18917 ft 393 kts 209°
2026-05-07 21:55 49.72047 19.56299 19521 ft 395 kts 209°
2026-05-07 21:55 49.69651 19.54245 20111 ft 396 kts 209°
2026-05-07 21:55 49.67233 19.52173 20681 ft 398 kts 208°
2026-05-07 21:55 49.64809 19.50100 20893 ft 408 kts 208°
2026-05-07 21:56 49.62279 19.47940 21162 ft 415 kts 209°
2026-05-07 21:56 49.59734 19.45741 21595 ft 419 kts 209°
2026-05-07 21:56 49.57212 19.43500 22089 ft 420 kts 210°
2026-05-07 21:56 49.54716 19.41268 22539 ft 422 kts 210°
2026-05-07 21:57 49.52149 19.38976 23006 ft 423 kts 210°
2026-05-07 21:57 49.49621 19.36720 23464 ft 424 kts 210°
2026-05-07 21:57 49.47081 19.34461 23948 ft 424 kts 208°
2026-05-07 21:57 49.44527 19.32180 24538 ft 422 kts 209°
2026-05-07 21:58 49.42020 19.29940 25137 ft 418 kts 209°
2026-05-07 21:58 49.39505 19.27704 25676 ft 417 kts 208°
2026-05-07 21:58 49.36997 19.25478 26172 ft 415 kts 208°
2026-05-07 21:58 49.34522 19.23289 26654 ft 414 kts 208°
2026-05-07 21:59 49.32021 19.21081 27015 ft 415 kts 208°
2026-05-07 21:59 49.29484 19.18846 27335 ft 417 kts 208°
2026-05-07 21:59 49.26976 19.16641 27667 ft 418 kts 208°
2026-05-07 21:59 49.24453 19.14419 27983 ft 418 kts 208°
2026-05-07 22:00 49.19407 19.09990 28027 ft 417 kts 208°
2026-05-07 22:00 49.14349 19.05565 28027 ft 418 kts 208°
2026-05-07 22:01 49.09311 19.01166 28029 ft 418 kts 208°
2026-05-07 22:01 49.04257 18.96762 28037 ft 417 kts 208°
2026-05-07 22:02 48.99212 18.92383 28032 ft 418 kts 208°
2026-05-07 22:02 48.94167 18.88019 28036 ft 419 kts 207°
2026-05-07 22:03 48.91452 18.86451 28031 ft 419 kts 193°
2026-05-07 22:03 48.88559 18.86061 28030 ft 422 kts 180°
2026-05-07 22:03 48.85665 18.86848 28026 ft 428 kts 165°
2026-05-07 22:03 48.82959 18.88812 28028 ft 436 kts 151°
2026-05-07 22:04 48.78337 18.94980 28037 ft 443 kts 141°
2026-05-07 22:04 48.73867 19.01391 28036 ft 442 kts 141°
2026-05-07 22:05 48.69377 19.07814 28038 ft 443 kts 141°
2026-05-07 22:05 48.64908 19.14185 28036 ft 443 kts 142°
2026-05-07 22:06 48.60409 19.20574 28032 ft 443 kts 142°
2026-05-07 22:06 48.55908 19.26952 28039 ft 443 kts 142°
2026-05-07 22:07 48.51419 19.33298 28029 ft 443 kts 142°
2026-05-07 22:07 48.46900 19.39665 28031 ft 444 kts 142°
2026-05-07 22:08 48.42374 19.46026 28041 ft 444 kts 142°
2026-05-07 22:08 48.37891 19.52312 28032 ft 445 kts 142°
2026-05-07 22:09 48.33358 19.58654 28031 ft 445 kts 141°
2026-05-07 22:09 48.28825 19.64985 27867 ft 444 kts 141°
2026-05-07 22:10 48.26540 19.68175 27044 ft 449 kts 142°
2026-05-07 22:10 48.24248 19.71372 25848 ft 456 kts 142°
2026-05-07 22:10 48.21937 19.74587 24712 ft 460 kts 142°
2026-05-07 22:10 48.19461 19.77639 23573 ft 457 kts 152°
2026-05-07 22:11 48.16587 19.79409 22602 ft 447 kts 169°
2026-05-07 22:11 48.13530 19.79805 21878 ft 436 kts 185°
2026-05-07 22:11 48.10578 19.79203 21277 ft 428 kts 190°
2026-05-07 22:11 48.07647 19.78521 20679 ft 421 kts 190°
2026-05-07 22:12 48.04764 19.77851 20093 ft 415 kts 190°
2026-05-07 22:12 48.01944 19.77194 19504 ft 409 kts 191°
2026-05-07 22:12 47.99132 19.76538 18936 ft 403 kts 190°
2026-05-07 22:12 47.96388 19.75898 18402 ft 397 kts 190°
2026-05-07 22:13 47.93679 19.75268 17861 ft 393 kts 191°
2026-05-07 22:13 47.91006 19.74648 17283 ft 389 kts 191°
2026-05-07 22:13 47.88351 19.74031 16688 ft 386 kts 191°
2026-05-07 22:13 47.85722 19.73321 16105 ft 384 kts 196°
2026-05-07 22:14 47.83229 19.71917 15525 ft 380 kts 207°
2026-05-07 22:14 47.81027 19.69835 14953 ft 378 kts 218°
2026-05-07 22:14 47.79039 19.67240 14372 ft 376 kts 223°
2026-05-07 22:14 47.77131 19.64609 13800 ft 374 kts 224°
2026-05-07 22:15 47.75238 19.61981 13235 ft 373 kts 224°
2026-05-07 22:15 47.73338 19.59359 12697 ft 369 kts 224°
2026-05-07 22:15 47.71475 19.56799 12295 ft 361 kts 224°
2026-05-07 22:15 47.69646 19.54296 11912 ft 354 kts 223°
2026-05-07 22:16 47.67849 19.51841 11511 ft 348 kts 223°
2026-05-07 22:16 47.66097 19.49453 11124 ft 341 kts 223°
2026-05-07 22:16 47.64372 19.47103 10766 ft 335 kts 224°
2026-05-07 22:16 47.62656 19.44767 10381 ft 329 kts 224°
2026-05-07 22:17 47.60989 19.42499 9988 ft 324 kts 224°
2026-05-07 22:17 47.59344 19.40261 9604 ft 319 kts 224°
2026-05-07 22:17 47.57732 19.38071 9238 ft 314 kts 224°
2026-05-07 22:17 47.56126 19.35892 8897 ft 308 kts 224°
2026-05-07 22:18 47.54537 19.33824 8541 ft 303 kts 216°
2026-05-07 22:18 47.50552 19.33194 7836 ft 301 kts 155°
2026-05-07 22:18 47.48966 19.35127 7532 ft 298 kts 128°
2026-05-07 22:19 47.47802 19.37659 7239 ft 293 kts 124°
2026-05-07 22:19 47.46646 19.40094 6930 ft 288 kts 128°
2026-05-07 22:19 47.45403 19.42407 6625 ft 283 kts 130°
2026-05-07 22:19 47.44128 19.44581 6331 ft 279 kts 132°
2026-05-07 22:20 47.42828 19.46715 6033 ft 274 kts 133°
2026-05-07 22:20 47.41558 19.48762 5750 ft 270 kts 133°
2026-05-07 22:20 47.40288 19.50798 5465 ft 266 kts 133°
2026-05-07 22:20 47.39043 19.52795 5192 ft 262 kts 133°
2026-05-07 22:21 47.37820 19.54754 4920 ft 258 kts 133°
2026-05-07 22:21 47.36527 19.56529 4627 ft 252 kts 152°
2026-05-07 22:21 47.34891 19.57052 4391 ft 238 kts 192°
2026-05-07 22:21 47.33483 19.56016 4143 ft 225 kts 226°
2026-05-07 22:22 47.32420 19.54328 3893 ft 220 kts 229°
2026-05-07 22:22 47.31368 19.52706 3686 ft 217 kts 227°
2026-05-07 22:22 47.30302 19.51150 3473 ft 216 kts 227°
2026-05-07 22:22 47.29554 19.49284 3022 ft 213 kts 260°
2026-05-07 22:23 47.29871 19.47263 2718 ft 203 kts 305°
2026-05-07 22:23 47.30936 19.46067 2685 ft 183 kts 327°
2026-05-07 22:23 47.31967 19.45167 2655 ft 162 kts 324°
2026-05-07 22:23 47.32847 19.44210 2681 ft 156 kts 318°
2026-05-07 22:24 47.33648 19.43154 2642 ft 155 kts 315°
2026-05-07 22:24 47.34430 19.42041 2534 ft 155 kts 313°
2026-05-07 22:24 47.35186 19.40888 2460 ft 155 kts 311°
2026-05-07 22:24 47.35923 19.39715 2248 ft 154 kts 310°
2026-05-07 22:25 47.36643 19.38553 2040 ft 153 kts 310°
2026-05-07 22:25 47.37361 19.37393 1811 ft 153 kts 310°
2026-05-07 22:25 47.38068 19.36239 1575 ft 152 kts 310°
2026-05-07 22:25 47.38782 19.35086 1342 ft 152 kts 310°
2026-05-07 22:26 47.39483 19.33935 1177 ft 152 kts 310°
2026-05-07 22:26 47.40205 19.32778 1027 ft 152 kts 309°
2026-05-07 22:26 47.40905 19.31605 791 ft 152 kts 310°
2026-05-07 22:26 47.41621 19.30476 612 ft 152 kts 311°
2026-05-07 22:27 47.42336 19.29329 455 ft 152 kts 311°
2026-05-07 22:27 47.43027 19.28207 429 ft 131 kts 311°
2026-05-07 22:27 47.43522 19.27401 454 ft 81 kts 313°
2026-05-07 22:27 47.43797 19.26958 468 ft 44 kts 312°
2026-05-07 22:28 47.43979 19.26661 474 ft 24 kts 309°
2026-05-07 22:28 47.44052 19.26539 478 ft 12 kts 297°
2026-05-07 22:28 47.44061 19.26499 478 ft 2 kts 280°
2026-05-07 22:28 47.44063 19.26468 479 ft 3 kts 276°
2026-05-07 22:29 47.44064 19.26425 479 ft 5 kts 263°
2026-05-07 22:29 47.44053 19.26362 479 ft 7 kts 250°
2026-05-07 22:29 47.44017 19.26294 478 ft 9 kts 221°
2026-05-07 22:29 47.43961 19.26221 478 ft 10 kts 209°
2026-05-07 22:30 47.43893 19.26246 478 ft 11 kts 135°
2026-05-07 22:30 47.43832 19.26341 477 ft 13 kts 132°
2026-05-07 22:30 47.43782 19.26409 476 ft 10 kts 159°
2026-05-07 22:30 47.43751 19.26406 476 ft 1 kts 201°
2026-05-07 22:31 47.43742 19.26399 476 ft 0 kts 208°
2026-05-07 22:31 47.43735 19.26394 476 ft 3 kts 213°
2026-05-07 22:31 47.43700 19.26351 475 ft 8 kts 221°
2026-05-07 22:31 47.43649 19.26281 474 ft 11 kts 222°
2026-05-07 22:32 47.43602 19.26217 474 ft 5 kts 220°
2026-05-07 22:32 47.43560 19.26215 474 ft 7 kts 146°
2026-05-07 22:32 47.43523 19.26269 474 ft 5 kts 134°
2026-05-07 22:32 47.43501 19.26300 474 ft 2 kts 160°
2026-05-07 22:33 47.43476 19.26279 474 ft 5 kts 219°
2026-05-07 22:33 47.43454 19.26251 474 ft 0 kts 222°